Location: Excel
(51.3833°N, 110.5667°W)
Time: 20:46:20
(UTC+00:00)

Envisat - Pass Details

Date: 03 December 2021
Orbit: 764 x 766 km, 98.2° (Epoch: 26 January)

Event Time Altitude Azimuth Distance (km) Brightness Sun altitude
Rises 00:45:49 0° 210° (SSW) 3,223 7.0 -13.2°
Reaches altitude 10° 00:48:50 10° 229° (SW) 2,303 6.6 -13.6°
Maximum altitude 00:52:17 18° 272° (W) 1,804 5.9 -14.1°
Drops below altitude 10° 00:55:46 10° 315° (NW) 2,315 5.8 -14.7°
Sets 00:58:49 0° 334° (NNW) 3,247 6.4 -15.1°
